< < Back
Terminal Aerodrome Forecast


Current Version              Previous Versions:   1  2  3  4  5  6  7  8  9  

Terminal Aerodrome Forecast

151
FTUS44 KMOB 021141
TAFPNS
TAF
KPNS 021141Z 0212/0312 01005KT P6SM FEW120 SCT250
     FM021600 06007KT P6SM SCT050
     FM022000 20009KT P6SM VCTS SCT050CB SCT250
     FM030000 23005KT P6SM FEW050 SCT250=



Latest METAR

349
SAUS70 KWBC 022200
MTRPNS
METAR KPNS 022153Z 24006KT 10SM SCT060 33/23 A2983 RMK AO2 SLP103
T03280228


USA.gov is the U.S. government's official web portal to all federal, state and local government web resources and services.